Moose, Wyoming, United States (83012)
Lat: 43.66N, Lon: 110.72W
Wx Zone: WYZ013
Local Info
Past Weather Observations for Friday, November 21, 2014

NOTE: This archive is for the closest National Weather Service station to Moose. Information may differ from the station used for current weather conditions.

Click here for Long-term Archive

Time Weather Temperature Dewpoint Humidity Pressure Winds Precip Visibility
23:55
Overcast
27°F / -3°C 23°F / -5°C 86% 29.92 in
(1013 mb)
SSE 4.6 mph
(SSE 7 kph)
- 10SM
23:35
Overcast
27°F / -3°C 23°F / -5°C 86% 29.92 in
(1013 mb)
Calm - 10SM
23:15
Partly Cloudy
23°F / -5°C 21°F / -6°C 93% 29.92 in
(1013 mb)
SE 3.5 mph
(SE 6 kph)
- 10SM
22:55
Clear
21°F / -6°C 19°F / -7°C 93% 29.92 in
(1013 mb)
SSE 3.5 mph
(SSE 6 kph)
- 10SM
22:35
Clear
21°F / -6°C 19°F / -7°C 93% 29.92 in
(1013 mb)
Calm - 10SM
22:15
Clear
25°F / -4°C 23°F / -5°C 93% 29.92 in
(1013 mb)
Calm - 10SM
21:55
Clear
25°F / -4°C 23°F / -5°C 93% 29.92 in
(1013 mb)
Calm - 10SM
21:35
Clear
25°F / -4°C 21°F / -6°C 86% 29.92 in
(1013 mb)
Calm - 10SM
21:15
Clear
25°F / -4°C 23°F / -5°C 93% 29.92 in
(1013 mb)
Calm - 10SM
20:55
Clear
25°F / -4°C 23°F / -5°C 93% 29.92 in
(1013 mb)
SW 8.1 mph
(SW 13 kph)
- 10SM
19:53
Clear
21°F / -6°C 19°F / -7°C 93% 29.95 in
(1014 mb)
SE 4.6 mph
(SE 7 kph)
- 10SM
18:52
Clear
25°F / -4°C 21°F / -6°C 86% 29.95 in
(1014 mb)
Calm - 10SM
17:53
Clear
23°F / -5°C 19°F / -7°C 86% 29.95 in
(1014 mb)
Calm - 10SM
16:53
Clear
28°F / -2°C 25°F / -4°C 86% 29.95 in
(1014 mb)
Calm - 10SM
15:52
Clear
30°F / -1°C 27°F / -3°C 86% 29.98 in
(1015 mb)
ESE 4.6 mph
(ESE 7 kph)
- 10SM
14:53
Clear
30°F / -1°C 25°F / -4°C 80% 29.98 in
(1015 mb)
Calm - 10SM
13:55
Clear
28°F / -2°C 25°F / -4°C 86% 29.98 in
(1015 mb)
Calm - 10SM
12:51
Partly Cloudy
25°F / -4°C 21°F / -6°C 86% 30.01 in
(1016 mb)
Calm - 10SM
11:51
Clear
25°F / -4°C 19°F / -7°C 80% 30.01 in
(1016 mb)
Calm - 10SM
10:52
Clear
21°F / -6°C 18°F / -8°C 86% 30.04 in
(1017 mb)
Calm - 10SM
09:55
Partly Cloudy
12°F / -11°C 12°F / -11°C 100% 30.06 in
(1018 mb)
NE 4.6 mph
(NE 7 kph)
- 10SM
08:51
Mostly Cloudy
14°F / -10°C 12°F / -11°C 92% 30.06 in
(1018 mb)
N 8.1 mph
(N 13 kph)
- 10SM
07:51
Overcast
16°F / -9°C 16°F / -9°C 100% 30.04 in
(1017 mb)
N 3.5 mph
(N 6 kph)
- 10SM
06:51
Overcast
12°F / -11°C 12°F / -11°C 100% 30.04 in
(1017 mb)
N 9.2 mph
(N 15 kph)
- 10SM
06:35
Overcast
12°F / -11°C 12°F / -11°C 100% 30.04 in
(1017 mb)
N 8.1 mph
(N 13 kph)
- 10SM
06:15
Mostly Cloudy
10°F / -12°C 10°F / -12°C 100% 30.04 in
(1017 mb)
N 6.9 mph
(N 11 kph)
- 10SM
05:55
Partly Cloudy
9°F / -13°C 9°F / -13°C 100% 30.01 in
(1016 mb)
N 5.8 mph
(N 9 kph)
- 10SM
05:35
Clear
10°F / -12°C 9°F / -13°C 92% 30.01 in
(1016 mb)
NE 6.9 mph
(NE 11 kph)
- 10SM
05:15
Partly Cloudy
9°F / -13°C 9°F / -13°C 100% 30.01 in
(1016 mb)
N 8.1 mph
(N 13 kph)
- 10SM
04:55
Mostly Cloudy
9°F / -13°C 7°F / -14°C 92% 30.01 in
(1016 mb)
N 6.9 mph
(N 11 kph)
- 10SM
04:35
Mostly Cloudy
10°F / -12°C 10°F / -12°C 100% 30.01 in
(1016 mb)
N 4.6 mph
(N 7 kph)
- 10SM
04:15
Overcast
10°F / -12°C 9°F / -13°C 92% 30.04 in
(1017 mb)
Calm - 10SM
03:55
Overcast
10°F / -12°C 10°F / -12°C 100% 30.04 in
(1017 mb)
ENE 4.6 mph
(ENE 7 kph)
- 10SM
03:35
Mostly Cloudy
10°F / -12°C 10°F / -12°C 100% 30.04 in
(1017 mb)
NE 4.6 mph
(NE 7 kph)
- 10SM
03:15
Mostly Cloudy
12°F / -11°C 12°F / -11°C 100% 30.04 in
(1017 mb)
NE 4.6 mph
(NE 7 kph)
- 10SM
02:55
Overcast
14°F / -10°C 12°F / -11°C 92% 30.04 in
(1017 mb)
Calm - 10SM
02:35
Overcast
12°F / -11°C 12°F / -11°C 100% 30.04 in
(1017 mb)
N 3.5 mph
(N 6 kph)
- 10SM
02:15
Overcast
10°F / -12°C 9°F / -13°C 92% 30.04 in
(1017 mb)
NNE 3.5 mph
(NNE 6 kph)
- 10SM
01:55
Mostly Cloudy
14°F / -10°C 12°F / -11°C 92% 30.04 in
(1017 mb)
NNE 4.6 mph
(NNE 7 kph)
- 10SM
01:35
Clear
12°F / -11°C 12°F / -11°C 100% 30.04 in
(1017 mb)
N 6.9 mph
(N 11 kph)
- 10SM
01:15
Clear
16°F / -9°C 14°F / -10°C 93% 30.04 in
(1017 mb)
NE 5.8 mph
(NE 9 kph)
- 10SM
00:55
Mostly Cloudy
18°F / -8°C 16°F / -9°C 93% 30.04 in
(1017 mb)
NE 3.5 mph
(NE 6 kph)
- 10SM
00:35
Overcast
19°F / -7°C 18°F / -8°C 93% 30.04 in
(1017 mb)
N 5.8 mph
(N 9 kph)
- 10SM
00:15
Overcast
19°F / -7°C 18°F / -8°C 93% 30.04 in
(1017 mb)
N 6.9 mph
(N 11 kph)
- 10SM
Time Weather Temperature Dewpoint Humidity Pressure Winds Precip Visibility


Weather for websites

WeatherForYou.com, LLC is not responsible for any damages or problems caused by this service. Current weather conditions are obtained from the closest station including government and personal stations which may have varying degrees of accuracy. Weather forecasts are derived from the NOAA NDFD. Like all things, this site belongs to Jesus Christ... He just trusts me to maintain it. If you have any questions or comments email webmaster@weatherforyou.com

Copyright © 2014, WeatherForYou.com LLC. All rights reserved.